Location: *
(48.8489°N, 2.3218°E)
Time: 03:32:21
(UTC+00:00)

Cosmos 1975 Rocket - Pass Details

Date: 23 August 2019
Orbit: 605 x 633 km, 82.5° (Epoch: 20 September)

Event Time Altitude Azimuth Distance (km) Brightness Sun altitude
Rises 20:44:36 0° 352° (N) 2,913 7.3 -16.9°
Reaches altitude 10° 20:46:51 10° 356° (N) 2,006 6.3 -17.2°
Maximum altitude 20:51:16 65° 78° (ENE) 692 3.1 -17.7°
Enters shadow 20:52:56 36° 148° (SSE) 993 3.6 -17.9°
